User: anonymous   Login
Location: Holyhead Bay
(53.3667°N, 4.6667°W)
Time: 21:24:24
(UTC+00:00)
Language:

Cosmos 1470 Rocket - Orbit

View from above orbital plane
View from above orbital plane
View from above satellite
View from above satellite

Ground track
Ground track

The orbit data is extracted from the following two-line orbital elements,

1 14148U 83061B   21055.51591234  .00000120  00000-0  11666-4 0  9996
2 14148  82.5160  86.6186 0020895 204.7372 321.0680 14.83366598 13586
Epoch (UTC): 24 February 2021 12:22:54
Eccentricity: 0.0020895
inclination: 82.5160°
perigee height: 604 km
apogee height: 633 km
right ascension of ascending node: 86.6186°
argument of perigee: 204.7372°
revolutions per day: 14.83366598
mean anomaly at epoch: 321.0680°
orbit number at epoch: 1358

The dashed part of the orbit path shows where the satellite is in the earth's shadow,  

DLR